When you browse on this site, cookies collect data to enhance your experience and personalize the content and advertising you see.
Visit our Privacy Policy to learn more. By continuing to use the site, you agree to this use of cookies and data.
  • In United Kingdom
  • List of Countries
  • For 7 days
  • Water Temperature
  • Satellite Maps
  • Weather Map
  • Weather Widgets
  • user-avatar
    Login

    Hourly Weather Ondjiwa

    Today, 19 December, Wednesday

    Time Temperature Precipitation Wind Pressure Humidity
    00:00 +30°C° 0 mm 4 mps 667 mmHg 32%
    01:00 +29°C° 0 mm 4 mps 668 mmHg 30%
    02:00 +28°C° 0 mm 4 mps 667 mmHg 33%
    03:00 +27°C° 0 mm 3 mps 667 mmHg 36%
    04:00 +26°C° 0 mm 3 mps 667 mmHg 38%
    05:00 +26°C° 0 mm 3 mps 667 mmHg 37%
    06:00 +27°C° 0 mm 3 mps 667 mmHg 35%
    07:00 +28°C° 0 mm 3 mps 668 mmHg 35%
    08:00 +30°C° 0 mm 3 mps 668 mmHg 32%
    09:00 +33°C° 0 mm 3 mps 668 mmHg 29%
    10:00 +35°C° 0 mm 3 mps 669 mmHg 26%
    11:00 +36°C° 0 mm 3 mps 668 mmHg 24%
    12:00 +38°C° 0 mm 3 mps 668 mmHg 22%
    13:00 +39°C° 0 mm 3 mps 667 mmHg 19%
    14:00 +39°C° 0 mm 3 mps 666 mmHg 20%
    15:00 +38°C° 0 mm 2 mps 666 mmHg 20%
    16:00 +38°C° 0 mm 2 mps 665 mmHg 20%
    17:00 +37°C° 0 mm 2 mps 665 mmHg 22%
    18:00 +34°C° 0 mm 1 mps 665 mmHg 24%
    19:00 +33°C° 0 mm 1 mps 665 mmHg 26%
    20:00 +32°C° 0.1 mm 1 mps 665 mmHg 27%
    21:00 +31°C° 0.1 mm 2 mps 666 mmHg 28%
    22:00 +31°C° 0.1 mm 2 mps 666 mmHg 30%
    23:00 +30°C° 0.1 mm 3 mps 666 mmHg 30%

    Tomorrow, 20 December, Thursday

    Time Temperature Precipitation Wind Pressure Humidity
    00:00 +29°C° 0.1 mm 3 mps 666 mmHg 31%
    01:00 +28°C° 0.1 mm 4 mps 666 mmHg 31%
    02:00 +28°C° 0 mm 3 mps 666 mmHg 32%
    03:00 +27°C° 0 mm 2 mps 666 mmHg 32%
    04:00 +27°C° 0 mm 2 mps 666 mmHg 32%
    05:00 +27°C° 0.1 mm 2 mps 666 mmHg 30%
    06:00 +28°C° 0.1 mm 3 mps 667 mmHg 27%
    07:00 +28°C° 0.1 mm 3 mps 667 mmHg 25%
    08:00 +30°C° 0 mm 4 mps 668 mmHg 20%
    09:00 +34°C° 0 mm 4 mps 668 mmHg 16%
    10:00 +36°C° 0 mm 5 mps 668 mmHg 11%
    11:00 +37°C° 0 mm 4 mps 668 mmHg 11%
    12:00 +38°C° 0 mm 4 mps 668 mmHg 11%
    13:00 +41°C° 0 mm 4 mps 667 mmHg 12%
    14:00 +41°C° 0 mm 4 mps 667 mmHg 12%
    15:00 +41°C° 0 mm 4 mps 666 mmHg 12%
    16:00 +40°C° 0 mm 4 mps 665 mmHg 12%
    17:00 +38°C° 0 mm 4 mps 665 mmHg 14%
    18:00 +36°C° 0 mm 3 mps 665 mmHg 16%
    19:00 +34°C° 0 mm 3 mps 665 mmHg 17%
    20:00 +33°C° 0 mm 3 mps 666 mmHg 17%
    21:00 +32°C° 0 mm 4 mps 666 mmHg 17%
    22:00 +30°C° 0 mm 4 mps 667 mmHg 17%
    23:00 +30°C° 0 mm 4 mps 667 mmHg 16%

    Day after tomorrow, 21 December, Friday

    Time Temperature Precipitation Wind Pressure Humidity
    00:00 +29°C° 0 mm 3 mps 666 mmHg 16%
    01:00 +28°C° 0 mm 3 mps 666 mmHg 16%
    02:00 +27°C° 0 mm 3 mps 666 mmHg 18%
    03:00 +26°C° 0 mm 2 mps 666 mmHg 19%
    04:00 +26°C° 0 mm 2 mps 666 mmHg 21%
    05:00 +26°C° 0 mm 2 mps 667 mmHg 20%
    06:00 +26°C° 0 mm 2 mps 667 mmHg 20%
    07:00 +27°C° 0 mm 3 mps 668 mmHg 19%
    08:00 +29°C° 0 mm 3 mps 668 mmHg 16%
    09:00 +32°C° 0 mm 4 mps 668 mmHg 13%
    10:00 +34°C° 0 mm 4 mps 668 mmHg 10%
    11:00 +36°C° 0 mm 4 mps 668 mmHg 9%
    12:00 +37°C° 0 mm 4 mps 667 mmHg 9%
    13:00 +40°C° 0 mm 4 mps 667 mmHg 8%
    14:00 +41°C° 0 mm 4 mps 666 mmHg 9%
    15:00 +41°C° 0 mm 4 mps 665 mmHg 9%
    16:00 +41°C° 0 mm 4 mps 665 mmHg 10%
    17:00 +38°C° 0 mm 3 mps 664 mmHg 12%
    18:00 +36°C° 0 mm 3 mps 664 mmHg 13%
    19:00 +34°C° 0 mm 2 mps 664 mmHg 15%
    20:00 +33°C° 0 mm 3 mps 665 mmHg 15%
    21:00 +33°C° 0 mm 3 mps 665 mmHg 15%
    22:00 +33°C° 0 mm 4 mps 666 mmHg 15%
    23:00 +31°C° 0 mm 3 mps 666 mmHg 17%

    22 December, Saturday

    Time Temperature Precipitation Wind Pressure Humidity
    00:00 +30°C° 0 mm 3 mps 666 mmHg 19%
    01:00 +29°C° 0 mm 3 mps 666 mmHg 22%
    02:00 +28°C° 0.1 mm 3 mps 666 mmHg 28%
    03:00 +27°C° 0.1 mm 3 mps 666 mmHg 34%
    04:00 +26°C° 0.1 mm 3 mps 665 mmHg 40%
    05:00 +26°C° 0 mm 3 mps 666 mmHg 40%
    06:00 +27°C° 0 mm 3 mps 666 mmHg 41%
    07:00 +27°C° 0 mm 2 mps 667 mmHg 41%
    08:00 +29°C° 0.1 mm 2 mps 667 mmHg 37%
    09:00 +32°C° 0.1 mm 2 mps 667 mmHg 32%
    10:00 +35°C° 0.1 mm 2 mps 668 mmHg 27%
    11:00 +37°C° 0 mm 3 mps 667 mmHg 25%
    12:00 +38°C° 0 mm 3 mps 667 mmHg 22%
    13:00 +40°C° 0 mm 3 mps 666 mmHg 20%
    14:00 +39°C° 0 mm 3 mps 665 mmHg 21%
    15:00 +38°C° 0 mm 3 mps 665 mmHg 22%
    16:00 +38°C° 0 mm 3 mps 664 mmHg 23%
    17:00 +36°C° 0.1 mm 3 mps 664 mmHg 25%
    18:00 +35°C° 0.1 mm 3 mps 664 mmHg 28%
    19:00 +34°C° 0.1 mm 3 mps 664 mmHg 31%
    20:00 +32°C° 0.1 mm 2 mps 664 mmHg 34%
    21:00 +30°C° 0.1 mm 2 mps 665 mmHg 37%
    22:00 +29°C° 0.1 mm 2 mps 665 mmHg 40%
    23:00 +28°C° 0.9 mm 2 mps 665 mmHg 46%

    23 December, Sunday

    Time Temperature Precipitation Wind Pressure Humidity
    00:00 +27°C° 0.9 mm 3 mps 664 mmHg 51%
    01:00 +25°C° 0.9 mm 3 mps 664 mmHg 56%
    02:00 +25°C° 0.4 mm 2 mps 664 mmHg 56%
    03:00 +25°C° 0.4 mm 1 mps 664 mmHg 56%
    04:00 +25°C° 0.4 mm 1 mps 664 mmHg 56%
    05:00 +25°C° 0 mm 1 mps 665 mmHg 53%
    06:00 +26°C° 0 mm 1 mps 665 mmHg 50%
    07:00 +27°C° 0 mm 1 mps 666 mmHg 47%
    08:00 +30°C° 0 mm 1 mps 666 mmHg 41%
    09:00 +32°C° 0 mm 1 mps 667 mmHg 36%
    10:00 +35°C° 0 mm 1 mps 667 mmHg 30%
    11:00 +37°C° 0 mm 2 mps 667 mmHg 28%
    12:00 +37°C° 0 mm 2 mps 666 mmHg 26%
    13:00 +38°C° 0 mm 2 mps 665 mmHg 23%
    14:00 +38°C° 0 mm 2 mps 665 mmHg 23%
    15:00 +38°C° 0 mm 2 mps 664 mmHg 23%
    16:00 +38°C° 0 mm 2 mps 664 mmHg 22%
    17:00 +37°C° 0 mm 2 mps 664 mmHg 26%
    18:00 +35°C° 0 mm 3 mps 664 mmHg 29%
    19:00 +34°C° 0 mm 4 mps 664 mmHg 32%
    20:00 +33°C° 0.1 mm 3 mps 665 mmHg 35%
    21:00 +30°C° 0.1 mm 3 mps 665 mmHg 38%
    22:00 +29°C° 0.1 mm 3 mps 665 mmHg 41%
    23:00 +28°C° 1.4 mm 3 mps 665 mmHg 47%

    24 December, Monday

    Time Temperature Precipitation Wind Pressure Humidity
    00:00 +27°C° 1.4 mm 3 mps 665 mmHg 53%
    01:00 +26°C° 1.4 mm 3 mps 664 mmHg 59%
    02:00 +25°C° 0.5 mm 3 mps 664 mmHg 61%
    03:00 +25°C° 0.5 mm 3 mps 665 mmHg 63%
    04:00 +25°C° 0.5 mm 3 mps 665 mmHg 65%
    05:00 +26°C° 0 mm 3 mps 665 mmHg 63%
    06:00 +26°C° 0 mm 2 mps 666 mmHg 61%
    07:00 +27°C° 0 mm 2 mps 667 mmHg 59%
    08:00 +29°C° 0 mm 2 mps 667 mmHg 53%
    09:00 +30°C° 0 mm 2 mps 667 mmHg 47%
    10:00 +32°C° 0 mm 2 mps 667 mmHg 42%
    11:00 +34°C° 0 mm 2 mps 667 mmHg 38%
    12:00 +35°C° 0 mm 2 mps 666 mmHg 34%
    13:00 +36°C° 0 mm 2 mps 666 mmHg 30%
    14:00 +36°C° 0 mm 2 mps 665 mmHg 30%
    15:00 +36°C° 0 mm 2 mps 665 mmHg 31%
    16:00 +35°C° 0 mm 2 mps 664 mmHg 31%
    17:00 +34°C° 0.1 mm 2 mps 664 mmHg 34%
    18:00 +33°C° 0.1 mm 3 mps 664 mmHg 37%
    19:00 +31°C° 0.1 mm 3 mps 664 mmHg 40%
    20:00 +30°C° 0.2 mm 2 mps 665 mmHg 43%
    21:00 +29°C° 0.2 mm 2 mps 665 mmHg 46%
    22:00 +28°C° 0.2 mm 1 mps 666 mmHg 48%
    23:00 +28°C° 0.3 mm 2 mps 665 mmHg 51%
    Show more